When you browse on this site, cookies collect data to enhance your experience and personalize the content and advertising you see.
Visit our Privacy Policy to learn more. By continuing to use the site, you agree to this use of cookies and data.
  • In France
  • List of Countries
  • For 7 days
  • Water Temperature
  • Satellite Maps
  • Weather Map
  • Weather Widgets
  • user-avatar
    Login

    Hourly Weather Zenica

    Today, 27 May, Monday

    Time Temperature Precipitation Wind Pressure Humidity
    00:00 +11°C° 0.1 mm 1 mps 675 mmHg 95%
    01:00 +11°C° 0.1 mm 1 mps 675 mmHg 95%
    02:00 +11°C° 0 mm 1 mps 675 mmHg 94%
    03:00 +11°C° 0 mm 1 mps 675 mmHg 93%
    04:00 +11°C° 0 mm 1 mps 675 mmHg 91%
    05:00 +12°C° 0.1 mm 1 mps 675 mmHg 90%
    06:00 +12°C° 0.1 mm 1 mps 675 mmHg 88%
    07:00 +13°C° 0.1 mm 2 mps 675 mmHg 87%
    08:00 +13°C° 1.6 mm 1 mps 675 mmHg 89%
    09:00 +13°C° 1.6 mm 1 mps 675 mmHg 91%
    10:00 +12°C° 1.6 mm 1 mps 674 mmHg 94%
    11:00 +12°C° 1.1 mm 1 mps 674 mmHg 94%
    12:00 +13°C° 1.1 mm 1 mps 674 mmHg 94%
    13:00 +13°C° 1.1 mm 1 mps 674 mmHg 94%
    14:00 +13°C° 0.6 mm 1 mps 674 mmHg 94%
    15:00 +13°C° 0.6 mm 1 mps 673 mmHg 95%
    16:00 +13°C° 0.6 mm 1 mps 673 mmHg 96%
    17:00 +13°C° 0.1 mm 1 mps 673 mmHg 95%
    18:00 +12°C° 0.1 mm 1 mps 672 mmHg 95%
    19:00 +12°C° 0.1 mm 2 mps 672 mmHg 95%
    20:00 +12°C° 0 mm 1 mps 672 mmHg 95%
    21:00 +11°C° 0 mm 1 mps 672 mmHg 96%
    22:00 +10°C° 0 mm 1 mps 671 mmHg 96%
    23:00 +10°C° 0.1 mm 1 mps 671 mmHg 96%

    Tomorrow, 28 May, Tuesday

    Time Temperature Precipitation Wind Pressure Humidity
    00:00 +10°C° 0.1 mm 1 mps 671 mmHg 96%
    01:00 +9°C° 0.1 mm 2 mps 670 mmHg 96%
    02:00 +9°C° 0 mm 2 mps 670 mmHg 96%
    03:00 +9°C° 0 mm 2 mps 670 mmHg 96%
    04:00 +9°C° 0 mm 2 mps 670 mmHg 95%
    05:00 +10°C° 0.1 mm 2 mps 670 mmHg 93%
    06:00 +11°C° 0.1 mm 3 mps 670 mmHg 91%
    07:00 +11°C° 0.1 mm 3 mps 670 mmHg 88%
    08:00 +12°C° 0.1 mm 3 mps 671 mmHg 85%
    09:00 +13°C° 0.1 mm 3 mps 671 mmHg 82%
    10:00 +13°C° 0.1 mm 3 mps 671 mmHg 79%
    11:00 +14°C° 0.2 mm 4 mps 671 mmHg 78%
    12:00 +14°C° 0.2 mm 4 mps 671 mmHg 76%
    13:00 +15°C° 0.2 mm 4 mps 671 mmHg 75%
    14:00 +15°C° 0.1 mm 4 mps 671 mmHg 73%
    15:00 +15°C° 0.1 mm 4 mps 671 mmHg 72%
    16:00 +15°C° 0.1 mm 5 mps 671 mmHg 70%
    17:00 +14°C° 0 mm 4 mps 671 mmHg 76%
    18:00 +13°C° 0 mm 3 mps 671 mmHg 82%
    19:00 +13°C° 0 mm 2 mps 671 mmHg 87%
    20:00 +12°C° 0 mm 2 mps 671 mmHg 90%
    21:00 +10°C° 0 mm 2 mps 671 mmHg 93%
    22:00 +9°C° 0 mm 2 mps 671 mmHg 96%
    23:00 +9°C° 0 mm 2 mps 671 mmHg 97%

    Day after tomorrow, 29 May, Wednesday

    Time Temperature Precipitation Wind Pressure Humidity
    00:00 +9°C° 0 mm 2 mps 671 mmHg 97%
    01:00 +9°C° 0 mm 2 mps 671 mmHg 97%
    02:00 +9°C° 0 mm 2 mps 671 mmHg 97%
    03:00 +9°C° 0 mm 2 mps 671 mmHg 96%
    04:00 +9°C° 0 mm 2 mps 671 mmHg 96%
    05:00 +10°C° 0 mm 2 mps 672 mmHg 92%
    06:00 +12°C° 0 mm 2 mps 672 mmHg 88%
    07:00 +12°C° 0 mm 3 mps 673 mmHg 85%
    08:00 +12°C° 0.1 mm 3 mps 673 mmHg 83%
    09:00 +12°C° 0.1 mm 3 mps 673 mmHg 81%
    10:00 +12°C° 0.1 mm 3 mps 674 mmHg 79%
    11:00 +13°C° 0.1 mm 4 mps 674 mmHg 74%
    12:00 +14°C° 0.1 mm 4 mps 675 mmHg 69%
    13:00 +15°C° 0.1 mm 5 mps 675 mmHg 64%
    14:00 +14°C° 0 mm 5 mps 675 mmHg 63%
    15:00 +14°C° 0 mm 5 mps 676 mmHg 62%
    16:00 +14°C° 0 mm 5 mps 676 mmHg 62%
    17:00 +13°C° 0.1 mm 3 mps 676 mmHg 70%
    18:00 +12°C° 0.1 mm 2 mps 675 mmHg 78%
    19:00 +10°C° 0.1 mm 1 mps 675 mmHg 86%
    20:00 +9°C° 0 mm 1 mps 676 mmHg 89%
    21:00 +9°C° 0 mm 1 mps 676 mmHg 93%
    22:00 +7°C° 0 mm 0 mps 676 mmHg 96%
    23:00 +7°C° 0.1 mm 0 mps 676 mmHg 97%

    30 May, Thursday

    Time Temperature Precipitation Wind Pressure Humidity
    00:00 +7°C° 0.1 mm 0 mps 676 mmHg 97%
    01:00 +7°C° 0.1 mm 0 mps 676 mmHg 97%
    02:00 +8°C° 0 mm 1 mps 677 mmHg 97%
    03:00 +8°C° 0 mm 1 mps 677 mmHg 98%
    04:00 +8°C° 0 mm 1 mps 677 mmHg 98%
    05:00 +8°C° 0.1 mm 1 mps 677 mmHg 96%
    06:00 +9°C° 0.1 mm 1 mps 677 mmHg 95%
    07:00 +9°C° 0.1 mm 1 mps 677 mmHg 93%
    08:00 +9°C° 0.1 mm 1 mps 678 mmHg 90%
    09:00 +9°C° 0.1 mm 2 mps 678 mmHg 87%
    10:00 +10°C° 0.1 mm 2 mps 678 mmHg 83%
    11:00 +10°C° 0.1 mm 2 mps 678 mmHg 82%
    12:00 +10°C° 0.1 mm 2 mps 679 mmHg 81%
    13:00 +12°C° 0.1 mm 2 mps 679 mmHg 79%
    14:00 +12°C° 0 mm 2 mps 679 mmHg 77%
    15:00 +12°C° 0 mm 2 mps 679 mmHg 75%
    16:00 +12°C° 0 mm 2 mps 679 mmHg 73%
    17:00 +10°C° 0 mm 2 mps 678 mmHg 77%
    18:00 +10°C° 0 mm 1 mps 678 mmHg 81%
    19:00 +9°C° 0 mm 1 mps 678 mmHg 86%
    20:00 +8°C° 0 mm 1 mps 678 mmHg 88%
    21:00 +7°C° 0 mm 1 mps 678 mmHg 91%
    22:00 +6°C° 0 mm 1 mps 678 mmHg 94%
    23:00 +6°C° 0 mm 1 mps 678 mmHg 94%

    31 May, Friday

    Time Temperature Precipitation Wind Pressure Humidity
    00:00 +6°C° 0 mm 1 mps 678 mmHg 94%
    01:00 +6°C° 0 mm 1 mps 678 mmHg 95%
    02:00 +6°C° 0.1 mm 1 mps 678 mmHg 94%
    03:00 +7°C° 0.1 mm 1 mps 678 mmHg 93%
    04:00 +7°C° 0.1 mm 0 mps 678 mmHg 93%
    05:00 +9°C° 0.1 mm 1 mps 678 mmHg 92%
    06:00 +9°C° 0.1 mm 1 mps 678 mmHg 92%
    07:00 +10°C° 0.1 mm 1 mps 678 mmHg 91%
    08:00 +12°C° 0.1 mm 1 mps 678 mmHg 83%
    09:00 +13°C° 0.1 mm 2 mps 678 mmHg 76%
    10:00 +15°C° 0.1 mm 2 mps 678 mmHg 68%
    11:00 +16°C° 0.2 mm 2 mps 678 mmHg 68%
    12:00 +16°C° 0.2 mm 3 mps 678 mmHg 67%
    13:00 +17°C° 0.2 mm 3 mps 678 mmHg 67%
    14:00 +16°C° 0.5 mm 3 mps 678 mmHg 71%
    15:00 +16°C° 0.5 mm 3 mps 678 mmHg 74%
    16:00 +16°C° 0.5 mm 3 mps 678 mmHg 78%
    17:00 +14°C° 0.6 mm 3 mps 678 mmHg 83%
    18:00 +13°C° 0.6 mm 2 mps 678 mmHg 89%
    19:00 +12°C° 0.6 mm 2 mps 678 mmHg 95%
    20:00 +10°C° 2.6 mm 2 mps 678 mmHg 96%
    21:00 +9°C° 2.6 mm 3 mps 679 mmHg 97%
    22:00 +8°C° 2.6 mm 3 mps 679 mmHg 98%
    23:00 +5°C° 0.1 mm 3 mps 679 mmHg 96%

    1 June, Saturday

    Time Temperature Precipitation Wind Pressure Humidity
    00:00 +4°C° 0.1 mm 3 mps 679 mmHg 95%
    01:00 +2°C° 0.1 mm 3 mps 679 mmHg 94%
    02:00 +2°C° 0 mm 3 mps 679 mmHg 93%
    03:00 +3°C° 0 mm 2 mps 679 mmHg 93%
    04:00 +2°C° 0 mm 2 mps 679 mmHg 92%
    05:00 +2°C° 0.1 mm 3 mps 680 mmHg 89%
    06:00 +2°C° 0.1 mm 3 mps 680 mmHg 87%
    07:00 +1°C° 0.1 mm 4 mps 680 mmHg 85%
    08:00 +3°C° 0.4 mm 4 mps 680 mmHg 82%
    09:00 +3°C° 0.4 mm 4 mps 681 mmHg 79%
    10:00 +4°C° 0.4 mm 4 mps 681 mmHg 76%
    11:00 +4°C° 0.3 mm 4 mps 681 mmHg 77%
    12:00 +5°C° 0.3 mm 4 mps 681 mmHg 77%
    13:00 +5°C° 0.3 mm 4 mps 680 mmHg 77%
    14:00 +6°C° 0.1 mm 4 mps 680 mmHg 77%
    15:00 +6°C° 0.1 mm 4 mps 680 mmHg 77%
    16:00 +7°C° 0.1 mm 4 mps 680 mmHg 77%
    17:00 +6°C° 0.1 mm 4 mps 680 mmHg 81%
    18:00 +7°C° 0.1 mm 3 mps 680 mmHg 85%
    19:00 +5°C° 0.1 mm 3 mps 680 mmHg 89%
    20:00 +5°C° 0.1 mm 3 mps 680 mmHg 91%
    21:00 +5°C° 0.1 mm 2 mps 681 mmHg 94%
    22:00 +5°C° 0.1 mm 2 mps 681 mmHg 96%
    23:00 +5°C° 0.1 mm 2 mps 681 mmHg 96%
    Show more